Regional Weather Roundup
Issued by NWS

Home | Current Version | Previous Version | Graphics & Text | Print | Product List | Glossary On
Versions: 1 2 3 4 5 6 7 8 9 10 11 12 13 14 15 16 17 18 19 20 21 22 23 24 25 26 27 28 29 30 31 32 33 34 35 36 37 38 39 40 41 42 43 44 45 46 47 48 49 50
106
ASUS45 KSLC 090310
RWRUT

UTAH REGIONAL WEATHER ROUNDUP
NATIONAL WEATHER SERVICE SALT LAKE CITY UT
800 PM MST MON FEB 08 2016

UTZ001>011-023>025-090400-

NORTHERN UTAH

CITY           SKY/WX    TMP DP  RH WIND       PRES   REMARKS
BRIGHAM CITY   MOCLDY    26  24  91 CALM      30.64S
HILL AFB       MOCLDY    31  22  68 E3        30.61S
LOGAN          PTCLDY    14  13  95 SW3       30.64F FOG
OGDEN          MOCLDY    30  24  78 CALM      30.61F
PROVO AIRPORT  MOCLDY    25  18  74 CALM      30.63S
SALT LAKE CITY MOCLDY    32  26  78 N6        30.62F WCI  26
VERNAL         CLOUDY    16  11  80 N3        30.55R
WENDOVER       CLEAR     34  27  75 CALM      30.62F
HEBER CITY     PTCLDY    18  12  79 CALM      30.59S
WEST JORDAN    CLEAR     32  28  86 CALM      30.63S

$$

UTZ012>022-026-027-090400-

SOUTHERN/CENTRAL UTAH

CITY           SKY/WX    TMP DP  RH WIND       PRES   REMARKS
BLANDING       CLEAR     33  25  72 N9        30.52R WCI  25
BRYCE CANYON   PTCLDY    27  18  69 NW10      30.54F WCI  17
CEDAR CITY     CLEAR     27  21  78 S5        30.54F WCI  22
DELTA          MOCLDY    18  17  95 CALM      30.62S
HANKSVILLE     CLEAR     27  25  93 E3        30.53S
MILFORD        PTCLDY    18  14  84 N6        30.58F WCI  10
MOAB/CYNLANDS  CLEAR     23  19  85 CALM      30.51S
PRICE          PTCLDY    26  19  74 CALM      30.48F
ST GEORGE      PTCLDY    52  25  35 N3        30.44S
KANAB          CLEAR     39  28  65 CALM      30.49S

$$

REGIONAL REPORTS     COLORADO/ARIZONA

CITY           SKY/WX    TMP DP  RH WIND       PRES   REMARKS
CRAIG, CO      CLOUDY     6   2  83 CALM      30.53S
GRAND JUNCTION CLOUDY    23  20  88 CALM      30.52R
RIFLE          CLOUDY    24  15  68 E6        30.51S WCI  17
MONTROSE       CLOUDY    27  21  78 S6        30.53R WCI  20
CORTEZ         CLOUDY    35  24  64 E3        30.43R
PAGE, AZ       CLEAR     41  24  51 CALM      30.47S
GRAND CANYON   PTCLDY    34  21  59 SW3       30.48R
KINGMAN        CLEAR     50  24  36 E12       30.34R
FLAGSTAFF      CLEAR     45  17  32 NE15      30.46R

$$

REGIONAL REPORTS    NEVADA/IDAHO/WYOMING

CITY           SKY/WX    TMP DP  RH WIND       PRES   REMARKS
LAS VEGAS, NV  CLEAR     64  26  23 NE7       30.30R
ELY            CLEAR     21  16  81 S10       30.59S WCI  10
ELKO           PTCLDY    23  17  78 E7        30.61S WCI  15
POCATELLO, ID  CLOUDY    25  23  92 NE5       30.64F WCI  19
BURLEY         CLOUDY    29  27  92 NE8       30.61S WCI  21
EVANSTON, WY   CLOUDY    30  17  58 S5        30.57F WCI  25
ROCK SPRINGS   CLOUDY    30  23  75 SW18      30.48R WCI  18

$$




USA.gov is the U.S. government's official web portal to all federal, state and local government web resources and services.